FW4391 Weather Reports


time (UTC)temp
F
wind
direction
speed
knots
gust
knots
rain 1hr
in
rain 24hr
in
rain mn
in
humidity
%
barometer
mb
20260502170446 84 360 10.4 21.7 0.00 0.00 0.00 29 1010.2
20260502164047 81 360 12.2 20.9 0.00 0.00 0.00 30 1010.4
20260502163947 81 360 15.6 20.9 0.00 0.00 0.00 31 1010.2
20260502163549 82 360 15.6 25.2 0.00 0.00 0.00 30 1010.4
20260502163447 82 360 16.5 25.2 0.00 0.00 0.00 30 1010.3
20260502163047 81 360 16.5 25.2 0.00 0.00 0.00 30 1010.3
20260502162947 81 360 18.2 21.7 0.00 0.00 0.00 31 1010.2
20260502162547 81 360 13.0 22.6 0.00 0.00 0.00 31 1010.3
20260502162446 81 360 13.9 23.5 0.00 0.00 0.00 31 1010.1
20260502162047 81 360 14.8 23.5 0.00 0.00 0.00 32 1010.3
20260502161947 81 360 15.6 23.5 0.00 0.00 0.00 31 1010.3
20260502161547 81 360 15.6 21.7 0.00 0.00 0.00 31 1010.2
20260502161447 81 360 16.5 21.7 0.00 0.00 0.00 31 1010.3
20260502161047 81 360 15.6 21.7 0.00 0.00 0.00 31 1010.2
20260502160946 81 360 13.0 21.7 0.00 0.00 0.00 31 1010.1
20260502160547 81 360 16.5 21.7 0.00 0.00 0.00 31 1010.3
20260502160446 81 360 18.2 21.7 0.00 0.00 0.00 31 1010.3
20260502152047 79 360 10.4 15.6 0.00 0.00 0.00 32 1009.9
20260502151946 79 360 13.0 15.6 0.00 0.00 0.00 31 1009.8
20260502151551 79 360 12.2 15.6 0.00 0.00 0.00 31 1009.9
20260502151050 78 360 10.4 14.8 0.00 0.00 0.00 32 1010.0
20260502150946 78 360 10.4 15.6 0.00 0.00 0.00 31 1009.9
20260502150547 78 360 8.7 16.5 0.00 0.00 0.00 32 1009.8
20260502150446 78 360 7.8 16.5 0.00 0.00 0.00 32 1009.8
20260502130550 68 360 2.6 4.3 0.00 0.00 0.00 29 1008.4
20260502130446 68 360 3.5 3.5 0.00 0.00 0.00 29 1008.4
20260502123546 70 360 4.3 7.8 0.00 0.00 0.00 28 1007.9
20260502123447 70 360 2.6 7.8 0.00 0.00 0.00 28 1007.7
20260502123050 69 360 2.6 7.8 0.00 0.00 0.00 29 1007.9
20260502122946 69 360 3.5 7.8 0.00 0.00 0.00 29 1007.8
20260502122549 68 360 2.6 5.2 0.00 0.00 0.00 30 1007.8
20260502122447 68 360 2.6 7.0 0.00 0.00 0.00 30 1007.7
20260502122047 67 360 3.5 7.0 0.00 0.00 0.00 30 1007.8
20260502121946 67 360 3.5 7.0 0.00 0.00 0.00 30 1007.7
20260502121552 67 360 3.5 5.2 0.00 0.00 0.00 31 1007.7
20260502121446 66 360 3.5 7.0 0.00 0.00 0.00 31 1007.7
20260502121047 66 360 3.5 7.0 0.00 0.00 0.00 31 1007.7
20260502120947 66 360 4.3 7.0 0.00 0.00 0.00 31 1007.8
20260502120548 66 360 4.3 8.7 0.00 0.00 0.00 31 1007.7
20260502120447 66 360 5.2 8.7 0.00 0.00 0.00 31 1007.6
20260502115551 67 360 5.2 8.7 0.00 0.00 0.00 30 1007.7
20260502115046 67 360 6.1 8.7 0.00 0.00 0.00 30 1007.8
20260502114946 67 360 7.0 8.7 0.00 0.00 0.00 30 1007.7
20260502114547 69 360 6.1 7.8 0.00 0.00 0.00 30 1007.8
20260502114047 70 360 4.3 7.0 0.00 0.00 0.00 29 1007.8
20260502113946 70 360 4.3 7.0 0.00 0.00 0.00 29 1007.7
20260502113548 70 360 3.5 7.8 0.00 0.00 0.00 28 1007.7
20260502113448 70 360 3.5 7.8 0.00 0.00 0.00 28 1007.6
20260502113047 69 360 5.2 7.8 0.00 0.00 0.00 29 1007.8
20260502112947 68 360 4.3 7.8 0.00 0.00 0.00 30 1007.6
20260502112549 66 360 4.3 7.8 0.00 0.00 0.00 31 1007.7
20260502112046 64 360 4.3 7.8 0.00 0.00 0.00 33 1007.7
20260502111946 64 360 4.3 5.2 0.00 0.00 0.00 33 1007.6
20260502111600 63 360 2.6 7.8 0.00 0.00 0.00 34 1007.6
20260502111447 63 360 2.6 7.8 0.00 0.00 0.00 34 1007.5
20260502111048 63 360 4.3 7.8 0.00 0.00 0.00 35 1007.6
20260502110946 62 360 4.3 7.0 0.00 0.00 0.00 35 1007.5
20260502110547 62 360 3.5 7.0 0.00 0.00 0.00 35 1007.4
20260502110446 62 360 3.5 7.8 0.00 0.00 0.00 35 1007.4
20260502110048 62 360 4.3 7.8 0.00 0.00 0.00 35 1007.5
20260502105947 62 360 4.3 7.8 0.00 0.00 0.00 35 1007.4
20260502105548 62 360 5.2 7.8 0.00 0.00 0.00 34 1007.3
20260502105047 62 360 4.3 8.7 0.00 0.00 0.00 34 1007.3
20260502104547 62 360 4.3 8.7 0.00 0.00 0.00 34 1007.4
20260502104446 62 360 4.3 7.8 0.00 0.00 0.00 34 1007.4
20260502104048 63 360 6.1 9.6 0.00 0.00 0.00 34 1007.4
20260502103947 63 360 7.8 9.6 0.00 0.00 0.00 34 1007.3
20260502103548 64 360 4.3 9.6 0.00 0.00 0.00 33 1007.4
20260502103102 67 360 7.0 8.7 0.00 0.00 0.00 31 1007.4
20260502102547 69 360 5.2 7.0 0.00 0.00 0.00 28 1007.5
20260502102447 69 360 7.0 7.0 0.00 0.00 0.00 28 1007.3
20260502102048 69 360 2.6 3.5 0.00 0.00 0.00 29 1007.4
20260502101946 69 360 2.6 3.5 0.00 0.00 0.00 29 1007.3
20260502101555 68 360 1.7 2.6 0.00 0.00 0.00 29 1007.3
20260502101446 68 360 1.7 3.5 0.00 0.00 0.00 29 1007.3
20260502101048 68 360 0.9 4.3 0.00 0.00 0.00 28 1007.4
20260502100946 68 360 1.7 4.3 0.00 0.00 0.00 28 1007.3
20260502100546 69 360 1.7 5.2 0.00 0.00 0.00 28 1007.4
20260502091446 74 360 0.0 2.6 0.00 0.00 0.00 25 1006.8
20260502091048 74 360 0.0 2.6 0.00 0.00 0.00 25 1006.9
20260502090946 74 360 0.0 2.6 0.00 0.00 0.00 25 1006.8
20260502090549 75 360 0.9 2.6 0.00 0.00 0.00 25 1006.8
20260502090446 75 360 1.7 2.6 0.00 0.00 0.00 25 1006.9
20260502071449 82 360 7.8 9.6 0.00 0.00 0.00 16 1006.1
20260502071049 82 360 6.1 8.7 0.00 0.00 0.00 16 1006.1
20260502070550 82 360 2.6 8.7 0.00 0.00 0.00 18 1006.2
20260502070449 83 360 4.3 8.7 0.00 0.00 0.00 18 1006.0
20260502070050 83 360 4.3 8.7 0.00 0.00 0.00 16 1006.1
20260502065952 84 360 7.8 8.7 0.00 0.00 0.00 16 1006.0
20260502065550 84 360 5.2 11.3 0.00 0.00 0.00 15 1006.1
20260502065450 84 360 8.7 11.3 0.00 0.00 0.00 15 1006.1
20260502065049 84 360 7.0 11.3 0.00 0.00 0.00 15 1006.0
20260502064949 84 360 7.8 11.3 0.00 0.00 0.00 15 1005.9
20260502064550 84 360 7.0 11.3 0.00 0.00 0.00 15 1005.9
20260502064449 84 360 8.7 12.2 0.00 0.00 0.00 15 1005.9
20260502064052 84 360 7.0 12.2 0.00 0.00 0.00 15 1006.0
20260502063550 85 360 7.8 13.0 0.00 0.00 0.00 15 1006.0
20260502063449 85 360 9.6 13.0 0.00 0.00 0.00 15 1005.9
20260502063050 85 360 6.1 13.0 0.00 0.00 0.00 15 1005.9
20260502062951 85 360 7.0 13.0 0.00 0.00 0.00 15 1005.8
20260502062551 85 360 7.8 12.2 0.00 0.00 0.00 15 1005.7
20260502062449 85 360 9.6 12.2 0.00 0.00 0.00 15 1005.8
20260502062050 85 360 7.8 15.6 0.00 0.00 0.00 15 1005.7
20260502061949 85 360 7.8 15.6 0.00 0.00 0.00 15 1005.6
20260502061552 85 360 8.7 15.6 0.00 0.00 0.00 15 1005.7
20260502061049 86 360 7.8 15.6 0.00 0.00 0.00 15 1005.7
20260502060949 86 360 5.2 15.6 0.00 0.00 0.00 15 1005.6
20260502060549 86 360 8.7 13.9 0.00 0.00 0.00 15 1005.8
20260502060449 86 360 8.7 13.9 0.00 0.00 0.00 15 1005.7
20260502060049 86 360 7.0 14.8 0.00 0.00 0.00 15 1005.6
20260502055950 86 360 10.4 16.5 0.00 0.00 0.00 15 1005.6
20260502055551 86 360 7.8 16.5 0.00 0.00 0.00 15 1005.7
20260502055050 86 360 8.7 20.0 0.00 0.00 0.00 15 1005.6
20260502054949 86 360 11.3 20.0 0.00 0.00 0.00 15 1005.5
20260502054553 86 360 6.1 13.9 0.00 0.00 0.00 15 1005.6
20260502054449 86 360 7.0 13.9 0.00 0.00 0.00 15 1005.5
20260502054053 86 360 7.0 13.9 0.00 0.00 0.00 15 1005.6
20260502053549 86 360 7.0 13.9 0.00 0.00 0.00 15 1005.6
20260502053449 86 360 7.8 13.9 0.00 0.00 0.00 15 1005.5
20260502053050 86 360 7.0 16.5 0.00 0.00 0.00 15 1005.6
20260502052950 86 360 3.5 16.5 0.00 0.00 0.00 15 1005.6
20260502052551 85 360 7.8 16.5 0.00 0.00 0.00 15 1005.5
20260502052449 85 360 4.3 16.5 0.00 0.00 0.00 15 1005.5
20260502052052 84 360 4.3 13.9 0.00 0.00 0.00 16 1005.6
20260502051949 84 360 3.5 13.9 0.00 0.00 0.00 16 1005.6
20260502051549 83 360 7.0 13.9 0.00 0.00 0.00 16 1005.6
20260502051449 83 360 12.2 13.9 0.00 0.00 0.00 17 1005.5
20260502051049 81 360 5.2 8.7 0.00 0.00 0.00 18 1005.6
20260502050949 81 360 7.0 8.7 0.00 0.00 0.00 18 1005.6
20260502050549 80 360 0.0 2.6 0.00 0.00 0.00 20 1005.7
20260502050449 80 360 0.9 1.7 0.00 0.00 0.00 20 1005.5
20260502050049 81 360 0.0 2.6 0.00 0.00 0.00 21 1005.6
20260502045950 81 360 0.9 2.6 0.00 0.00 0.00 22 1005.5
20260502045552 81 360 0.9 2.6 0.00 0.00 0.00 20 1005.5
20260502045449 81 360 1.7 2.6 0.00 0.00 0.00 20 1005.4
20260502045051 81 360 0.0 0.0 0.00 0.00 0.00 18 1005.5
20260502044950 82 360 0.0 0.0 0.00 0.00 0.00 20 1005.4
20260502044550 82 360 0.0 2.6 0.00 0.00 0.00 22 1005.4
20260502044449 82 360 0.0 2.6 0.00 0.00 0.00 21 1005.4
20260502044049 82 360 0.9 4.3 0.00 0.00 0.00 19 1005.4
20260502043949 82 360 0.9 4.3 0.00 0.00 0.00 17 1005.4
20260502043550 83 360 0.0 4.3 0.00 0.00 0.00 17 1005.5
20260502043449 83 360 0.0 4.3 0.00 0.00 0.00 17 1005.4
20260502043051 84 360 0.0 2.6 0.00 0.00 0.00 18 1005.4
20260502042949 84 360 0.9 1.7 0.00 0.00 0.00 19 1005.4
20260502042551 84 360 0.0 2.6 0.00 0.00 0.00 19 1005.4
20260502042049 85 360 0.9 2.6 0.00 0.00 0.00 16 1005.4
20260502041948 85 360 1.7 2.6 0.00 0.00 0.00 15 1005.4
20260502041549 85 360 0.9 2.6 0.00 0.00 0.00 15 1005.2
20260502041048 85 360 0.9 3.5 0.00 0.00 0.00 15 1005.3
20260502040949 85 360 0.9 3.5 0.00 0.00 0.00 15 1005.2
20260502040548 85 360 1.7 3.5 0.00 0.00 0.00 15 1005.2
20260502040449 85 360 1.7 3.5 0.00 0.00 0.00 15 1005.1
20260502040049 86 360 0.9 4.3 0.00 0.00 0.00 15 1005.2
20260502035949 86 360 2.6 4.3 0.00 0.00 0.00 15 1005.0
20260502035551 86 360 1.7 4.3 0.00 0.00 0.00 14 1005.1
20260502035448 86 360 0.0 4.3 0.00 0.00 0.00 14 1005.0
20260502035049 86 360 0.9 4.3 0.00 0.00 0.00 14 1005.0
20260502034949 86 360 0.0 4.3 0.00 0.00 0.00 14 1005.0
20260502034549 86 360 1.7 4.3 0.00 0.00 0.00 14 1004.9
20260502034448 86 360 1.7 4.3 0.00 0.00 0.00 14 1004.8
20260502034049 86 360 1.7 5.2 0.00 0.00 0.00 14 1004.8
20260502033949 86 360 2.6 5.2 0.00 0.00 0.00 14 1004.8
20260502033549 86 360 0.9 5.2 0.00 0.00 0.00 14 1004.8
20260502033049 86 360 2.6 5.2 0.00 0.00 0.00 14 1004.8
20260502032949 86 360 2.6 5.2 0.00 0.00 0.00 14 1004.7
20260502032549 86 360 1.7 4.3 0.00 0.00 0.00 14 1004.7
20260502032449 86 360 2.6 4.3 0.00 0.00 0.00 14 1004.7
20260502032050 86 360 1.7 4.3 0.00 0.00 0.00 14 1004.7
20260502031949 86 360 1.7 4.3 0.00 0.00 0.00 14 1004.6
20260502031549 86 360 0.9 4.3 0.00 0.00 0.00 14 1004.6
20260502031052 86 360 2.6 5.2 0.00 0.00 0.00 13 1004.7
20260502030950 86 360 2.6 5.2 0.00 0.00 0.00 13 1004.6
20260502030548 86 360 1.7 5.2 0.00 0.00 0.00 14 1004.5
20260502030053 86 360 1.7 4.3 0.00 0.00 0.00 14 1004.4
20260502025949 86 360 1.7 4.3 0.00 0.00 0.00 14 1004.3
20260502025549 87 360 2.6 4.3 0.00 0.00 0.00 14 1004.4
20260502025449 87 360 1.7 4.3 0.00 0.00 0.00 14 1004.3
20260502025051 87 360 1.7 7.8 0.00 0.00 0.00 14 1004.4
20260502024948 87 360 2.6 7.8 0.00 0.00 0.00 14 1004.3
20260502024552 87 360 2.6 7.8 0.00 0.00 0.00 14 1004.3
20260502024449 87 360 1.7 7.8 0.00 0.00 0.00 14 1004.3
20260502024049 87 360 4.3 7.8 0.00 0.00 0.00 14 1004.3
20260502023948 87 360 2.6 7.0 0.00 0.00 0.00 14 1004.3
20260502023552 87 360 2.6 5.2 0.00 0.00 0.00 15 1004.3
20260502023449 87 360 3.5 5.2 0.00 0.00 0.00 15 1004.2
20260502023053 87 360 0.9 7.8 0.00 0.00 0.00 14 1004.3
20260502022948 87 360 0.0 7.8 0.00 0.00 0.00 14 1004.1
20260502022550 87 360 1.7 7.8 0.00 0.00 0.00 14 1004.1
20260502022449 87 360 5.2 7.8 0.00 0.00 0.00 14 1004.0
20260502022049 87 360 4.3 9.6 0.00 0.00 0.00 14 1004.1
20260502021949 88 360 3.5 9.6 0.00 0.00 0.00 14 1004.0
20260502021549 88 360 4.3 9.6 0.00 0.00 0.00 14 1004.1
20260502021449 88 360 7.0 9.6 0.00 0.00 0.00 14 1004.0
20260502021049 88 360 2.6 8.7 0.00 0.00 0.00 14 1004.1
20260502020949 88 360 3.5 8.7 0.00 0.00 0.00 14 1004.1
20260502020549 88 360 6.1 8.7 0.00 0.00 0.00 14 1004.2
20260502020449 88 360 7.8 8.7 0.00 0.00 0.00 13 1004.2
20260502020049 88 360 5.2 8.7 0.00 0.00 0.00 13 1004.1
20260502015949 88 360 3.5 8.7 0.00 0.00 0.00 13 1004.1
20260502015549 88 360 5.2 8.7 0.00 0.00 0.00 14 1004.1
20260502015449 88 360 4.3 9.6 0.00 0.00 0.00 14 1004.0
20260502015049 88 360 3.5 9.6 0.00 0.00 0.00 14 1004.0
20260502014551 88 360 5.2 9.6 0.00 0.00 0.00 14 1004.0
20260502014449 88 360 4.3 9.6 0.00 0.00 0.00 14 1004.0
20260502014049 88 360 2.6 7.0 0.00 0.00 0.00 15 1004.1
20260502013948 89 360 4.3 7.8 0.00 0.00 0.00 15 1004.0
20260502013549 89 360 2.6 7.8 0.00 0.00 0.00 15 1004.0
20260502013449 89 360 2.6 7.8 0.00 0.00 0.00 15 1003.9
20260502013050 89 360 2.6 9.6 0.00 0.00 0.00 15 1004.0
20260502012951 89 360 2.6 9.6 0.00 0.00 0.00 15 1003.9
20260502012549 89 360 5.2 9.6 0.00 0.00 0.00 15 1004.1
20260502012449 89 360 4.3 9.6 0.00 0.00 0.00 15 1003.9
20260502012052 89 360 2.6 8.7 0.00 0.00 0.00 15 1003.9
20260502011948 89 360 2.6 8.7 0.00 0.00 0.00 15 1003.9
20260502011549 89 360 4.3 8.7 0.00 0.00 0.00 15 1004.0
20260502011449 89 360 3.5 7.8 0.00 0.00 0.00 15 1003.9
20260502011021 89 360 2.6 7.0 0.00 0.00 0.00 15 1004.0
20260502010609 89 360 2.6 9.6 0.00 0.00 0.00 15 1003.9
20260502010507 89 360 2.6 9.6 0.00 0.00 0.00 15 1004.0
20260502010055 89 360 6.1 11.3 0.00 0.00 0.00 15 1004.0
20260502005539 89 360 7.0 11.3 0.00 0.00 0.00 16 1004.0
20260502005024 89 360 0.9 10.4 0.00 0.00 0.00 16 1004.2
20260502004518 89 360 7.0 10.4 0.00 0.00 0.00 16 1004.1
20260502004508 89 360 10.4 10.4 0.00 0.00 0.00 16 1004.0
20260502004100 89 360 4.3 9.6 0.00 0.00 0.00 16 1004.0
20260502003542 89 360 3.5 11.3 0.00 0.00 0.00 15 1004.1
20260502003438 89 360 4.3 11.3 0.00 0.00 0.00 15 1004.0
20260502003027 89 360 7.0 11.3 0.00 0.00 0.00 16 1004.1
20260502002924 89 360 3.5 10.4 0.00 0.00 0.00 16 1004.1
20260502002511 89 360 6.1 10.4 0.00 0.00 0.00 17 1004.3
20260502002408 89 360 9.6 9.6 0.00 0.00 0.00 17 1004.2
20260502002100 89 360 4.3 9.6 0.00 0.00 0.00 17 1004.2
20260502001853 89 360 9.6 11.3 0.00 0.00 0.00 17 1004.2
20260502001545 89 360 4.3 11.3 0.00 0.00 0.00 17 1004.3
20260502001338 89 360 7.8 11.3 0.00 0.00 0.00 17 1004.3
20260502001030 89 360 5.2 11.3 0.00 0.00 0.00 18 1004.3
20260502000823 89 360 8.7 8.7 0.00 0.00 0.00 18 1004.2
20260502000514 88 360 4.3 8.7 0.00 0.00 0.00 18 1004.2
20260502000310 88 360 2.6 11.3 0.00 0.00 0.00 18 1004.2
20260502000117 89 360 5.2 11.3 0.00 0.00 0.00 18 1004.2
20260501235754 89 360 4.3 11.3 0.00 0.00 0.00 18 1004.2
20260501235547 89 360 7.8 11.3 0.00 0.00 0.00 18 1004.2
20260501235239 89 360 5.2 8.7 0.00 0.00 0.00 18 1004.2
20260501235033 89 360 3.5 8.7 0.00 0.00 0.00 17 1004.2
20260501234723 89 360 7.0 8.7 0.00 0.00 0.00 17 1004.2
20260501234526 89 360 2.6 11.3 0.00 0.00 0.00 17 1004.2
20260501234210 89 360 2.6 11.3 0.00 0.00 0.00 17 1004.3
20260501234004 89 360 4.3 11.3 0.00 0.00 0.00 17 1004.4
20260501233654 89 360 7.0 11.3 0.00 0.00 0.00 17 1004.3
20260501233555 89 360 7.8 10.4 0.00 0.00 0.00 17 1004.3
20260501233040 89 360 1.7 9.6 0.00 0.00 0.00 17 1004.2
20260501232623 88 360 3.5 11.3 0.00 0.00 0.00 18 1004.2
20260501232520 88 360 3.5 11.3 0.00 0.00 0.00 18 1004.3
20260501232005 89 360 5.2 11.3 0.00 0.00 0.00 18 1004.3
20260501231554 88 360 3.5 11.3 0.00 0.00 0.00 18 1004.3
20260501231040 89 360 2.6 11.3 0.00 0.00 0.00 18 1004.3
20260501230525 88 360 2.6 10.4 0.00 0.00 0.00 19 1004.5
20260501230523 88 360 0.9 10.4 0.00 0.00 0.00 19 1004.4
20260501230009 87 360 3.5 13.9 0.00 0.00 0.00 19 1004.7
20260501225556 88 360 7.0 13.9 0.00 0.00 0.00 19 1004.7
20260501225454 88 360 7.8 13.9 0.00 0.00 0.00 20 1004.7
20260501225045 88 360 5.2 11.3 0.00 0.00 0.00 21 1004.7
20260501224940 88 360 5.2 10.4 0.00 0.00 0.00 21 1004.7
20260501224526 87 360 2.6 13.9 0.00 0.00 0.00 20 1004.8
20260501224423 87 360 2.6 13.9 0.00 0.00 0.00 20 1004.8
20260501224011 87 360 9.6 13.9 0.00 0.00 0.00 22 1004.8
20260501223908 87 360 9.6 13.9 0.00 0.00 0.00 22 1004.8
20260501223559 87 360 6.1 12.2 0.00 0.00 0.00 21 1004.8
20260501223353 87 360 10.4 12.2 0.00 0.00 0.00 20 1004.8
20260501223044 87 360 7.8 13.0 0.00 0.00 0.00 21 1004.8
20260501222838 87 360 7.8 13.0 0.00 0.00 0.00 23 1004.8
20260501222529 87 360 8.7 13.0 0.00 0.00 0.00 22 1005.0
20260501222015 87 360 6.1 12.2 0.00 0.00 0.00 23 1005.0
20260501221606 86 360 5.2 13.0 0.00 0.00 0.00 23 1005.2
20260501221253 86 360 8.7 13.0 0.00 0.00 0.00 22 1005.3
20260501221051 86 360 8.7 13.9 0.00 0.00 0.00 23 1005.3
20260501220739 86 360 7.0 13.9 0.00 0.00 0.00 23 1005.3
20260501220534 86 360 7.8 13.9 0.00 0.00 0.00 23 1005.4
20260501220017 86 360 5.2 13.9 0.00 0.00 0.00 23 1005.5
20260501215708 86 360 10.4 13.9 0.00 0.00 0.00 23 1005.5
20260501215503 86 360 7.0 13.9 0.00 0.00 0.00 24 1005.7
20260501215153 86 360 7.0 14.8 0.00 0.00 0.00 24 1005.5
20260501215050 86 360 9.6 14.8 0.00 0.00 0.00 24 1005.6
20260501214638 86 360 8.7 14.8 0.00 0.00 0.00 24 1005.5
20260501214535 86 360 7.8 14.8 0.00 0.00 0.00 23 1005.5
20260501214123 86 360 8.7 14.8 0.00 0.00 0.00 21 1005.5
20260501214021 86 360 8.7 14.8 0.00 0.00 0.00 21 1005.6
20260501213608 86 360 8.7 13.9 0.00 0.00 0.00 23 1005.6
20260501213505 86 360 7.0 13.9 0.00 0.00 0.00 24 1005.8
20260501213109 86 360 8.7 13.9 0.00 0.00 0.00 23 1005.8
20260501213053 86 360 7.8 13.9 0.00 0.00 0.00 23 1005.7
20260501212538 86 360 7.8 13.9 0.00 0.00 0.00 24 1005.8
20260501212023 86 360 6.1 13.0 0.00 0.00 0.00 24 1006.0
20260501211508 86 360 7.0 12.2 0.00 0.00 0.00 24 1006.1
20260501211055 86 360 3.5 13.0 0.00 0.00 0.00 23 1006.1
20260501210541 86 360 7.8 13.9 0.00 0.00 0.00 23 1006.3
20260501210026 87 360 7.8 13.9 0.00 0.00 0.00 23 1006.2
20260501205922 87 360 7.0 11.3 0.00 0.00 0.00 23 1006.2
20260501205511 87 360 7.0 11.3 0.00 0.00 0.00 23 1006.3
20260501205407 87 360 8.7 11.3 0.00 0.00 0.00 23 1006.2
20260501205059 86 360 3.5 13.0 0.00 0.00 0.00 21 1006.3
20260501204548 86 360 5.2 13.0 0.00 0.00 0.00 22 1006.4
20260501204337 86 360 3.5 13.0 0.00 0.00 0.00 22 1006.3
20260501204028 86 360 8.7 13.0 0.00 0.00 0.00 22 1006.4
20260501203823 86 360 11.3 13.0 0.00 0.00 0.00 23 1006.3
20260501203514 85 360 6.1 13.9 0.00 0.00 0.00 23 1006.3
20260501203307 85 360 4.3 13.9 0.00 0.00 0.00 22 1006.3
20260501203102 84 360 7.0 13.9 0.00 0.00 0.00 22 1006.3
20260501202752 84 360 12.2 13.0 0.00 0.00 0.00 23 1006.3
20260501202548 84 360 8.7 12.2 0.00 0.00 0.00 23 1006.4
20260501202238 85 360 7.0 12.2 0.00 0.00 0.00 23 1006.3
20260501202034 85 360 8.7 12.2 0.00 0.00 0.00 23 1006.5
20260501201519 85 360 1.7 12.2 0.00 0.00 0.00 23 1006.4
20260501201208 85 360 9.6 13.9 0.00 0.00 0.00 23 1006.5
20260501201001 85 360 7.0 13.9 0.00 0.00 0.00 23 1006.6
20260501200653 84 360 4.3 13.9 0.00 0.00 0.00 24 1006.7
20260501200549 84 360 9.6 13.9 0.00 0.00 0.00 24 1006.7
20260501200137 85 360 12.2 13.9 0.00 0.00 0.00 24 1006.5
20260501200035 84 360 7.0 13.9 0.00 0.00 0.00 24 1006.7
20260501195520 84 360 9.6 13.9 0.00 0.00 0.00 24 1006.6
20260501195107 84 360 11.3 14.8 0.00 0.00 0.00 25 1006.6
20260501195005 84 360 7.0 14.8 0.00 0.00 0.00 25 1006.6
20260501194557 84 360 4.3 14.8 0.00 0.00 0.00 25 1006.7
20260501194553 84 360 5.2 14.8 0.00 0.00 0.00 25 1006.7
20260501194038 84 360 6.1 13.9 0.00 0.00 0.00 25 1006.8
20260501193522 84 360 8.7 13.9 0.00 0.00 0.00 25 1007.0
20260501193019 83 360 6.1 14.8 0.00 0.00 0.00 25 1006.9
20260501193008 83 360 10.4 14.8 0.00 0.00 0.00 25 1006.9
20260501192555 83 360 5.2 14.8 0.00 0.00 0.00 25 1007.1
20260501192452 83 360 4.3 14.8 0.00 0.00 0.00 25 1007.1
20260501192041 84 360 3.5 12.2 0.00 0.00 0.00 25 1007.1
20260501191937 84 360 2.6 12.2 0.00 0.00 0.00 26 1007.0
20260501191527 84 360 5.2 11.3 0.00 0.00 0.00 26 1007.1
20260501191422 83 360 7.0 10.4 0.00 0.00 0.00 26 1007.0
20260501191011 83 360 7.0 12.2 0.00 0.00 0.00 26 1007.4
20260501190907 83 360 7.0 12.2 0.00 0.00 0.00 26 1007.3
20260501190559 83 360 5.2 13.0 0.00 0.00 0.00 26 1007.5
20260501190352 83 360 7.8 13.0 0.00 0.00 0.00 26 1007.4
20260501190043 83 360 6.1 13.0 0.00 0.00 0.00 26 1007.5
20260501185837 83 360 2.6 13.0 0.00 0.00 0.00 27 1007.3
20260501185528 83 360 3.5 8.7 0.00 0.00 0.00 27 1007.6
20260501185322 82 360 1.7 10.4 0.00 0.00 0.00 27 1007.5
20260501185013 82 360 3.5 11.3 0.00 0.00 0.00 27 1007.7
20260501184807 82 360 2.6 11.3 0.00 0.00 0.00 27 1007.7
20260501184602 82 360 7.0 11.3 0.00 0.00 0.00 27 1007.8
20260501184252 82 360 4.3 9.6 0.00 0.00 0.00 28 1007.8
20260501184048 81 360 2.6 7.0 0.00 0.00 0.00 28 1007.8
20260501183737 81 360 0.9 11.3 0.00 0.00 0.00 29 1007.8
20260501183532 80 360 2.6 11.3 0.00 0.00 0.00 29 1007.9
20260501183222 80 360 4.3 11.3 0.00 0.00 0.00 29 1007.8
20260501183018 80 360 4.3 11.3 0.00 0.00 0.00 29 1007.9
20260501182707 80 360 1.7 9.6 0.00 0.00 0.00 29 1007.9
20260501182501 81 360 5.2 9.6 0.00 0.00 0.00 29 1008.1
20260501182153 81 360 3.5 8.7 0.00 0.00 0.00 28 1008.0
20260501182050 81 360 4.3 8.7 0.00 0.00 0.00 28 1008.0
20260501181637 82 360 4.3 13.9 0.00 0.00 0.00 28 1008.1
20260501181535 82 360 2.6 13.9 0.00 0.00 0.00 28 1008.2
20260501181122 82 360 7.0 13.9 0.00 0.00 0.00 28 1008.1
20260501181019 82 360 5.2 9.6 0.00 0.00 0.00 28 1008.2
20260501180505 82 360 0.0 8.7 0.00 0.00 0.00 28 1008.3
20260501180053 82 360 1.7 10.4 0.00 0.00 0.00 28 1008.4
20260501175542 82 360 5.2 9.6 0.00 0.00 0.00 28 1008.5
20260501175537 82 360 9.6 9.6 0.00 0.00 0.00 28 1008.5
20260501175022 82 360 0.0 7.0 0.00 0.00 0.00 28 1008.6
20260501174517 81 360 2.6 8.7 0.00 0.00 0.00 29 1008.6
20260501174507 81 360 0.9 8.7 0.00 0.00 0.00 29 1008.5
20260501174055 80 360 1.7 9.6 0.00 0.00 0.00 30 1008.6
20260501173952 80 360 1.7 9.6 0.00 0.00 0.00 30 1008.6
20260501173543 79 360 6.1 12.2 0.00 0.00 0.00 31 1008.7
20260501173025 79 360 2.6 12.2 0.00 0.00 0.00 31 1008.7
20260501172922 79 360 0.9 9.6 0.00 0.00 0.00 30 1008.7
20260501172510 79 360 5.2 11.3 0.00 0.00 0.00 30 1008.6
20260501172407 79 360 7.0 11.3 0.00 0.00 0.00 31 1008.6
20260501172058 79 360 4.3 11.3 0.00 0.00 0.00 31 1008.6
20260501171852 79 360 2.6 11.3 0.00 0.00 0.00 32 1008.6